Location: A�t �Alizem
(31.2076°N, 8.7872°W)
Time: 03:37:50
(UTC+00:00)

deb Explorer IX - Pass Details

Date: 25 June 2021
Orbit: 541 x 1234 km, 38.9° (Epoch: 30 July)

Event Time Altitude Azimuth Distance (km) Brightness Sun altitude
Rises 03:53:42 0° 296° (WNW) 3,293 ? -18.0°
Reaches altitude 10° 03:56:00 10° 298° (WNW) 2,461 ? -17.7°
Maximum altitude 04:01:57 75° 24° (NNE) 1,001 ? -16.7°
Drops below altitude 10° 04:09:09 10° 109° (ESE) 2,952 ? -15.6°
Sets 04:12:08 0° 111° (ESE) 3,993 ? -15.1°
